Regional Weather Roundup
Issued by NWS Sterling, VA

Home | Current Version | Previous Version | Graphics & Text | Print | Product List | Glossary On
Versions: 1 2 3 4 5 6 7 8 9 10 11 12 13 14 15 16 17 18 19 20 21 22 23 24 25 26 27 28 29 30 31 32 33 34 35 36 37 38 39 40 41 42 43 44 45 46 47 48 49 50
901
ASUS41 KLWX 260611
RWRLWX

REGIONAL WEATHER ROUNDUP
NATIONAL WEATHER SERVICE BALTIMORE MD/WASHINGTON DC
200 AM EDT THU APR 26 2018

Note: "FAIR" indicates few or no clouds below 12,000 feet
with no significant weather and/or obstructions to visibility.
 TC=TEMPERATURE CELSIUS

 * =Non NWS site. Station does not report precipitation (e.g. rain,
    snow, etc.), thunder, or fog.

DCZ001-MDZ009-015-VAZ040>042-051-053>054-260700-
WASHINGTON METRO

CITY           SKY/WX    TMP DP  RH WIND       PRES   REMARKS
WASHINGTON NAT FAIR      59  48  67 NW13      29.75R
DULLES         PTCLDY    55  45  68 NW18G25   29.77R
ANDREWS AFB    FAIR      57  48  72 NW14      29.74R
FT BELVOIR     FAIR      58  48  71 NW15      29.75S
QUANTICO       FAIR      59  49  69 NW8       29.77R
COLLEGE PARK*  FAIR      57  47  68 NW6       29.75R
LEESBURG*      MOCLDY    54  45  71 N7        29.80R
MANASSAS*      FAIR      56  47  71 NW14      29.78R
GAITHERSBURG*  FAIR      53  42  66 NW16G24   29.76S

$$

MDZ006>007-011-014-260700-
BALTIMORE METRO

CITY           SKY/WX    TMP DP  RH WIND       PRES   REMARKS
BWI AIRPORT    FAIR      55  50  83 W7        29.72S
MD SCIENCE CTR   N/A     60  49  66 MISG      29.72R
MARTIN STATE   FAIR      55  54  94 W9        29.73R
ANNAPOLIS      FAIR      62  50  64 NW10      29.71S
FORT MEADE*    FAIR      54  50  87 W6        29.76S

$$

MDZ012-015-019>023-260700-
MARYLAND EASTERN SHORE

CITY           SKY/WX    TMP DP  RH WIND       PRES   REMARKS
OCEAN CITY     FAIR      59  59 100 NW6       29.69R
SALISBURY      CLOUDY    59  58  96 W8        29.70R
BAY BRIDGE AP* FAIR      59  52  77 NW10      29.72R
CAMBRIDGE*     MOCLDY    59  55  88 W7        29.72R

$$

MDZ017>025-260700-
SOUTHERN MARYLAND

CITY           SKY/WX    TMP DP  RH WIND       PRES   REMARKS
PATUXENT RIVER FAIR      59  55  87 W13       29.73R
ST INIGOES     FAIR      56  55  97 W5        29.73R
LEONARDTOWN*   FAIR      55  54  94 W5        29.76R

$$

MDZ003>005-260700-
NORTH CENTRAL MARYLAND

CITY           SKY/WX    TMP DP  RH WIND       PRES   REMARKS
FREDERICK*     FAIR      54  37  54 W17       29.81R
HAGERSTOWN APT FAIR      49  37  63 NW10      29.80R
WESTMINSTER*   FAIR      54  45  71 NW13G21   29.74S

$$

MDZ501>502-260700-
WESTERN MARYLAND

CITY           SKY/WX    TMP DP  RH WIND       PRES   REMARKS
OAKLAND*       CLOUDY    34  34 100 W5        29.84S WCI  30
CUMBERLAND*    FAIR      46  36  66 W3        29.89F

$$

VAZ025>031-260700-
SHENANDOAH VALLEY

CITY           SKY/WX    TMP DP  RH WIND       PRES   REMARKS
WINCHESTER*    FAIR      48  37  66 NW15      29.83R
FRONT ROYAL*   FAIR      52  41  66 NW9       29.81S
LURAY*         FAIR      54  41  62 NW10      29.82S
NEW MARKET*    FAIR      53  40  63 CALM      29.82S
STAUNTON*      MOCLDY    55  45  70 N9        29.83R
WAYNESBORO*    MOCLDY    52  47  83 N7        29.82R

$$

WVZ021-048>050-054>055-260700-
EASTERN WEST VIRGINIA PANHANDLE

CITY           SKY/WX    TMP DP  RH WIND       PRES   REMARKS
MARTINSBURG    FAIR      51  38  60 NW12G18   29.80R
PETERSBURG*    FAIR      48  37  64 N3        29.87S

$$

VAZ036>039-050-260700-
CENTRAL FOOTHILLS

CITY           SKY/WX    TMP DP  RH WIND       PRES   REMARKS
CHARLOTTESVILL FAIR      60  48  64 N6        29.79R
CULPEPER*      FAIR      59  45  60 N7        29.80R
ORANGE*        CLOUDY    59  46  63 NW3       29.78S
GORDONSVILLE*  FAIR      57  51  78 CALM      29.78R
WARRENTON*     FAIR      57  45  63 NW12G18   29.78R

$$

VAZ055>057-260700-
NORTH AND CENTRAL PIEDMONT

CITY           SKY/WX    TMP DP  RH WIND       PRES   REMARKS
FREDERICKSBRG* FAIR      59  51  74 NW7       29.77R
STAFFORD*      FAIR      55  53  93 NW7       29.80R

$$

NCZ024-NYZ072-PAZ021-071-VAZ022-071-260700-
OTHER REGIONAL OBSERVATIONS

CITY           SKY/WX    TMP DP  RH WIND       PRES   REMARKS
NEW YORK CITY  CLOUDY    56  55  97 CALM      29.63F FOG
PHILADELPHIA   CLOUDY    61  53  75 NW10      29.66F
PITTSBURGH     FAIR      41  37  86 NW13      29.88F WCI  34
ROANOKE        CLOUDY    57  48  72 NW7       29.86S
RICHMOND       MOCLDY    57  57 100 CALM      29.77S
RALEIGH        FAIR      52  52 100 CALM      29.82R

$$

ANZ530>537-260700-
MARINE OBSERVATIONS

STATION/POSITION TIME  TEMP    WIND        PRES
                       AIR SEA DIR/SP/G
                 (UTC) (F)     (DEG/KT/KT) (MB)
THOMAS PT LIGHT  0600   60 54  310/ 17/ 20 1007.3R
BALT KEY BRIDGE  0548          280/ 12/ 14 1006.2R
COVE POINT       0548          320/ 10/ 13 1007.4R
LEWISETTA        0548          310/  6/  9 1007.2R
SOLOMONS ISLAND  0548          280/  6/  9 1006.7R
PINEY POINT      0548          320/ 10/ 11   N/A

$$





USA.gov is the U.S. government's official web portal to all federal, state and local government web resources and services.